Weather History for Versailles, OH

Change the Weather History Date:

Saturday, January 11, 2014

  Actual Average (KDAY) Record (KDAY)
Temperature  
Mean Temperature 38 °F 27 °F  
Max Temperature 44 °F 34 °F 59 °F (2013)
Min Temperature 32 °F 20 °F -8 °F (1977)
Degree Days  
Heating Degree Days 27 38  
Month to date heating degree days 412  
Since 1 July heating degree days 2571  
Cooling Degree Days 0 0  
Month to date cooling degree days 0  
Year to date cooling degree days 0  
Moisture  
Dew Point 39 °F    
Average Humidity 97    
Maximum Humidity 100    
Minimum Humidity 87    
Precipitation  
Precipitation 0.06 in 0.09 in 2.08 in (2005)
Month to date precipitation 1.05  
Year to date precipitation 1.05  
Snow  
Snow 0.00 in 0.30 in 2.80 in (2011)
Month to date snowfall 2.7  
Since 1 July snowfall 8.2  
Snow Depth -    
Sea Level Pressure  
Sea Level Pressure 29.58 in    
Wind  
Wind Speed - (North)    
Max Wind Speed -    
Max Gust Speed -    
Visibility 8 miles    
Events Rain    
T = Trace of Precipitation, MM = Missing Value Source: NWS Daily Summary

Daily Weather History Graph

Daily Weather History Graph

Search for Another Location

Airport:

Trip Planner

Search our weather history database for the weather conditions in past years. The results will help you decide how hot, cold, wet, or windy it might be!

Date:

Astronomy

Jan. 11, 2014 Rise Set
Actual Time 7:59 AM EST 5:32 PM EST
Civil Twilight 7:29 AM EST 6:02 PM EST
Nautical Twilight 6:56 AM EST 6:36 PM EST
Astronomical Twilight 6:23 AM EST 7:09 PM EST
Moon 2:16 PM EST (1/11) 4:03 AM EST (1/11)
Length of Visible Light 10h 32m
Length of Day
9h 32m
Waxing Gibbous, 83% of the Moon is Illuminated
Jan 11
Waxing Gibbous
Jan 15
Full
Jan 24
Last Quarter
Jan 30
New
Feb 6
First Quarter

Hourly Weather History & Observations

Time (EST) Temp. Dew Point Humidity Pressure Visibility Wind Dir Wind Speed Gust Speed Precip Events Conditions
12:15 AM 42.8 °F 42.8 °F 100% 29.67 in 4.0 mi North - - N/A Rain Rain
12:35 AM 42.8 °F 42.8 °F 100% 29.66 in 5.0 mi North - - 0.01 in Rain Light Rain
12:55 AM 42.8 °F 42.8 °F 100% 29.66 in 5.0 mi North - - 0.02 in Rain Light Rain
1:15 AM 42.8 °F 42.8 °F 100% 29.65 in 5.0 mi North - - 0.02 in Rain Rain
1:35 AM 42.8 °F 42.8 °F 100% 29.64 in 7.0 mi North - - 0.03 in Rain Light Rain
1:55 AM 42.8 °F 42.8 °F 100% 29.61 in 7.0 mi North - - 0.03 in Rain Light Rain
2:15 AM 44.6 °F 44.6 °F 100% 29.60 in 7.0 mi North - - N/A Rain Light Rain
2:35 AM 44.6 °F 44.6 °F 100% 29.58 in 7.0 mi North - - N/A   Light Drizzle
2:55 AM 44.6 °F 44.6 °F 100% 29.58 in 7.0 mi North - - 0.01 in Rain Rain
3:15 AM 44.6 °F 44.6 °F 100% 29.56 in 7.0 mi North - - N/A   Light Drizzle
3:35 AM 44.6 °F 44.6 °F 100% 29.56 in 7.0 mi North - - N/A   Light Drizzle
3:55 AM 44.6 °F 44.6 °F 100% 29.56 in 7.0 mi North - - N/A   Unknown
4:15 AM 44.6 °F 44.6 °F 100% 29.55 in 5.0 mi North - - N/A   Mist
4:35 AM 44.6 °F 44.6 °F 100% 29.55 in 7.0 mi North - - N/A   Unknown
4:55 AM 44.6 °F 44.6 °F 100% 29.54 in 5.0 mi North - - N/A   Mist
5:15 AM 44.6 °F 44.6 °F 100% 29.53 in 5.0 mi North - - N/A   Mist
5:35 AM 44.6 °F 44.6 °F 100% 29.53 in 4.0 mi North - - N/A   Mist
5:55 AM 42.8 °F 42.8 °F 100% 29.49 in 4.0 mi North - - N/A   Light Drizzle
6:15 AM 42.8 °F 42.8 °F 100% 29.50 in 4.0 mi North - - N/A   Mist
6:35 AM 44.6 °F 44.6 °F 100% 29.48 in 3.0 mi North - - N/A   Mist
6:55 AM 42.8 °F 42.8 °F 100% 29.48 in 2.5 mi North - - N/A   Mist
7:15 AM 44.6 °F 44.6 °F 100% 29.47 in 3.0 mi North - - N/A   Mist
7:35 AM 44.6 °F 44.6 °F 100% 29.47 in 3.0 mi North - - N/A   Mist
7:55 AM 44.6 °F 44.6 °F 100% 29.47 in 3.0 mi North - - N/A   Mist
8:15 AM 44.6 °F 44.6 °F 100% 29.45 in 7.0 mi North - - N/A   Unknown
8:35 AM 44.6 °F 44.6 °F 100% 29.45 in 4.0 mi North - - N/A   Mist
8:55 AM 44.6 °F 44.6 °F 100% 29.47 in 3.0 mi North - - N/A   Mist
9:15 AM 44.6 °F 44.6 °F 100% 29.46 in 1.8 mi North - - N/A   Mist
9:35 AM 44.6 °F 44.6 °F 100% 29.47 in 4.0 mi North - - N/A   Light Drizzle
9:55 AM 42.8 °F 42.8 °F 100% 29.47 in 4.0 mi North - - N/A   Mist
10:15 AM 42.8 °F 42.8 °F 100% 29.47 in 7.0 mi North - - N/A   Unknown
10:35 AM 42.8 °F 42.8 °F 100% 29.49 in 5.0 mi North - - N/A   Mist
10:55 AM 42.8 °F 42.8 °F 100% 29.50 in 7.0 mi North - - N/A   Unknown
11:15 AM 42.8 °F 42.8 °F 100% 29.49 in 10.0 mi North - - N/A   Unknown
11:35 AM 42.8 °F 42.8 °F 100% 29.49 in 10.0 mi North - - N/A   Unknown
11:55 AM 41.0 °F 41.0 °F 100% 29.48 in 10.0 mi North - - N/A   Unknown
12:15 PM 41.0 °F 41.0 °F 100% 29.49 in 10.0 mi North - - N/A   Unknown
12:35 PM 41.0 °F 39.2 °F 93% 29.49 in 10.0 mi North - - N/A   Unknown
12:55 PM 41.0 °F 37.4 °F 87% 29.49 in 10.0 mi North - - N/A   Unknown
1:15 PM 37.4 °F 37.4 °F 100% 29.50 in 10.0 mi North - - N/A   Unknown
1:35 PM 37.4 °F 35.6 °F 93% 29.49 in 10.0 mi North - - N/A   Unknown
1:55 PM 37.4 °F 35.6 °F 93% 29.50 in 10.0 mi North - - N/A   Unknown
2:15 PM 37.4 °F 33.8 °F 87% 29.50 in 10.0 mi North - - N/A   Unknown
2:35 PM 37.4 °F 33.8 °F 87% 29.50 in 10.0 mi North - - N/A   Overcast
2:55 PM 35.6 °F 33.8 °F 93% 29.52 in 10.0 mi North - - N/A   Overcast
3:15 PM 35.6 °F 33.8 °F 93% 29.54 in 10.0 mi North - - N/A   Overcast
3:35 PM 33.8 °F 33.8 °F 100% 29.55 in 10.0 mi North - - N/A   Overcast
3:55 PM 33.8 °F 33.8 °F 100% 29.57 in 10.0 mi North - - N/A   Overcast
4:15 PM 33.8 °F 33.8 °F 100% 29.58 in 10.0 mi North - - N/A   Overcast
4:35 PM 33.8 °F 32.0 °F 93% 29.59 in 10.0 mi North - - N/A   Overcast
4:55 PM 33.8 °F 32.0 °F 93% 29.60 in 10.0 mi North - - N/A   Overcast
5:15 PM 33.8 °F 32.0 °F 93% 29.60 in 10.0 mi North - - N/A   Overcast
5:35 PM 33.8 °F 32.0 °F 93% 29.61 in 10.0 mi North - - N/A   Overcast
5:55 PM 33.8 °F 32.0 °F 93% 29.62 in 7.0 mi North - - N/A   Overcast
6:15 PM 33.8 °F 32.0 °F 93% 29.63 in 7.0 mi North - - N/A   Overcast
6:35 PM 33.8 °F 32.0 °F 93% 29.64 in 10.0 mi North - - N/A   Overcast
6:55 PM 33.8 °F 32.0 °F 93% 29.64 in 10.0 mi North - - N/A   Overcast
7:15 PM 33.8 °F 32.0 °F 93% 29.65 in 10.0 mi North - - N/A   Overcast
7:35 PM 32.0 °F 32.0 °F 100% 29.67 in 10.0 mi North - - N/A   Overcast
7:55 PM 32.0 °F 32.0 °F 100% 29.68 in 10.0 mi North - - N/A   Overcast
8:15 PM 32.0 °F 32.0 °F 100% 29.69 in 10.0 mi North - - N/A   Overcast
8:35 PM 32.0 °F 32.0 °F 100% 29.70 in 10.0 mi North - - N/A   Overcast
8:55 PM 33.8 °F 32.0 °F 93% 29.71 in 10.0 mi North - - N/A   Overcast
9:15 PM 33.8 °F 32.0 °F 93% 29.71 in 10.0 mi North - - N/A   Overcast
9:35 PM 33.8 °F 32.0 °F 93% 29.72 in 10.0 mi North - - N/A   Overcast
9:55 PM 33.8 °F 32.0 °F 93% 29.72 in 10.0 mi North - - N/A   Overcast
10:15 PM 33.8 °F 32.0 °F 93% 29.73 in 10.0 mi North - - N/A   Overcast
10:35 PM 33.8 °F 32.0 °F 93% 29.73 in 10.0 mi North - - N/A   Overcast
10:55 PM 33.8 °F 32.0 °F 93% 29.74 in 10.0 mi North - - N/A   Overcast
11:15 PM 33.8 °F 32.0 °F 93% 29.74 in 10.0 mi North - - N/A   Overcast
11:35 PM 33.8 °F 32.0 °F 93% 29.74 in 10.0 mi North - - N/A   Overcast
11:55 PM 33.8 °F 32.0 °F 93% 29.75 in 10.0 mi North - - N/A   Overcast